DW8086 Weather Reports


time (UTC)temp
C
wind
direction
speed
KPH
gust
KPH
rain 1hr
cm
rain 24hr
cm
rain mn
cm
humidity
%
barometer
mb
20260504214515 23 248 6.4 11.3 0.00 0.00 0.00 35 1010.1
20260504213515 23 203 4.8 9.7 0.00 0.00 0.00 36 1010.1
20260504212515 23 248 6.4 11.3 0.00 0.00 0.00 35 1010.2
20260504211535 23 225 9.7 20.9 0.00 0.00 0.00 36 1010.2
20260504210515 23 248 6.4 11.3 0.00 0.00 0.00 36 1010.1
20260504205515 23 203 4.8 9.7 0.00 0.00 0.00 36 1010.2
20260504204515 23 248 11.3 17.7 0.00 0.00 0.00 35 1010.2
20260504203515 23 203 8.0 17.7 0.00 0.00 0.00 35 1010.2
20260504202515 23 270 4.8 8.0 0.00 0.00 0.00 35 1010.1
20260504201515 23 248 6.4 11.3 0.00 0.00 0.00 38 1010.1
20260504200516 23 225 9.7 14.5 0.00 0.00 0.00 36 1010.3
20260504195515 23 203 6.4 11.3 0.00 0.00 0.00 38 1010.5
20260504194515 22 203 6.4 11.3 0.00 0.00 0.00 38 1010.5
20260504193515 22 203 12.9 19.3 0.00 0.00 0.00 36 1010.6
20260504192515 22 203 9.7 12.9 0.00 0.00 0.00 36 1010.8
20260504191515 22 203 9.7 19.3 0.00 0.00 0.00 36 1010.9
20260504190515 22 203 9.7 16.1 0.00 0.00 0.00 39 1011.2
20260504185515 22 158 8.0 16.1 0.00 0.00 0.00 36 1011.2
20260504184515 22 293 4.8 9.7 0.00 0.00 0.00 38 1011.3
20260504183515 22 270 14.5 27.4 0.00 0.00 0.00 38 1011.5
20260504182515 21 248 12.9 22.5 0.00 0.00 0.00 36 1011.6
20260504181516 22 225 6.4 11.3 0.00 0.00 0.00 39 1011.8
20260504180516 21 203 6.4 9.7 0.00 0.00 0.00 39 1011.8
20260504175515 21 270 8.0 12.9 0.00 0.00 0.00 40 1011.9
20260504174515 21 203 6.4 14.5 0.00 0.00 0.00 38 1012.1
20260504173515 21 248 14.5 27.4 0.00 0.00 0.00 41 1012.2
20260504172535 21 158 6.4 12.9 0.00 0.00 0.00 43 1012.3
20260504171515 20 203 3.2 6.4 0.00 0.00 0.00 42 1012.4
20260504170536 21 225 8.0 16.1 0.00 0.00 0.00 44 1012.6
20260504150535 18 203 6.4 9.7 0.00 0.00 0.00 48 1013.9
20260504140542 17 225 8.0 14.5 0.00 0.00 0.00 50 1014.2
20260504130515 15 225 8.0 12.9 0.00 0.00 0.00 59 1015.0
20260504110516 9 180 6.4 9.7 0.00 0.00 0.00 75 1015.5
20260504100516 7 180 3.2 6.4 0.00 0.00 0.00 74 1015.3
20260504081515 7 0.0 1.6 0.00 0.00 0.00 68 1015.1
20260504080516 7 180 1.6 3.2 0.00 0.00 0.00 67 1015.0
20260504050516 8 225 3.2 4.8 0.00 0.00 0.00 59 1014.4
20260504045516 8 225 1.6 6.4 0.00 0.00 0.00 59 1014.4
20260504044536 8 225 1.6 3.2 0.00 0.00 0.00 59 1014.3
20260504043516 8 0.0 1.6 0.00 0.00 0.00 60 1014.2
20260504042516 8 0.0 0.0 0.00 0.00 0.00 60 1014.1
20260504041536 8 225 1.6 3.2 0.00 0.00 0.00 60 1014.1
20260504040516 8 0.0 0.0 0.00 0.00 0.00 59 1014.1
20260504035517 8 0.0 0.0 0.00 0.00 0.00 59 1013.9
20260504034537 8 0.0 0.0 0.00 0.00 0.00 58 1013.8
20260504033517 8 0.0 0.0 0.00 0.00 0.00 58 1013.8
20260504032517 9 0.0 1.6 0.00 0.00 0.00 57 1013.8
20260504031517 9 0.0 0.0 0.00 0.00 0.00 56 1013.8
20260504030537 9 0.0 1.6 0.00 0.00 0.00 55 1013.7
20260504025517 10 225 3.2 4.8 0.00 0.00 0.00 54 1013.6
20260504024517 10 225 1.6 3.2 0.00 0.00 0.00 53 1013.6
20260504023517 10 225 1.6 3.2 0.00 0.00 0.00 53 1013.7
20260504022537 10 225 1.6 3.2 0.00 0.00 0.00 53 1013.7
20260504021516 10 0.0 3.2 0.00 0.00 0.00 53 1013.7
20260504020516 9 0.0 0.0 0.00 0.00 0.00 55 1013.6
20260504015517 8 248 1.6 3.2 0.00 0.00 0.00 56 1013.6
20260504014516 8 0.0 0.0 0.00 0.00 0.00 58 1013.5
20260504013516 8 0.0 0.0 0.00 0.00 0.00 58 1013.5
20260504012517 8 0.0 0.0 0.00 0.00 0.00 57 1013.4
20260504011517 9 0.0 0.0 0.00 0.00 0.00 55 1013.3
20260504010537 10 0.0 0.0 0.00 0.00 0.00 54 1013.1
20260504005517 10 0.0 0.0 0.00 0.00 0.00 51 1013.0
20260504004517 11 0.0 0.0 0.00 0.00 0.00 48 1012.8
20260504003516 11 0.0 0.0 0.00 0.00 0.00 46 1012.7
20260504002537 12 0.0 0.0 0.00 0.00 0.00 44 1012.5
20260504001517 12 0.0 0.0 0.00 0.00 0.00 42 1012.4
20260504000516 13 0.0 1.6 0.00 0.00 0.00 40 1012.3
20260503235517 13 0.0 0.0 0.00 0.00 0.00 39 1012.2
20260503234517 14 0.0 0.0 0.00 0.00 0.00 37 1012.0
20260503233517 15 248 1.6 3.2 0.00 0.00 0.00 36 1011.9
20260503232517 15 248 4.8 9.7 0.00 0.00 0.00 35 1011.9
20260503231517 15 270 3.2 6.4 0.00 0.00 0.00 34 1011.9
20260503230537 15 270 6.4 11.3 0.00 0.00 0.00 33 1011.9
20260503225517 15 203 3.2 8.0 0.00 0.00 0.00 34 1011.8
20260503224516 15 248 9.7 14.5 0.00 0.00 0.00 33 1011.7
20260503223516 15 270 1.6 3.2 0.00 0.00 0.00 34 1011.6
20260503222517 15 270 4.8 9.7 0.00 0.00 0.00 34 1011.6
20260503221517 15 225 6.4 9.7 0.00 0.00 0.00 34 1011.6
20260503220537 15 270 8.0 14.5 0.00 0.00 0.00 34 1011.7
20260503215537 16 248 4.8 9.7 0.00 0.00 0.00 34 1011.7